www.pogodaiklimat.ru

ПОГОДА в Лаграндже, OR

  • Прогноз погоды в Лаграндже
  • Монитор погоды в Лаграндже
  • Климат в Лаграндже

АРХИВ ПОГОДЫ в Лаграндже

Время (UTC), дата Ветер
(напр.,м/с)
 
Видим.   Явления Облачность Т
(С)
Тd
(С)
f
(%)
Тe
(С)
Тes
(С)
Комфортность

P
(гПа)

Po
(гПа)
Тmin
(С)
Tmax
(С)
R
(мм)
SD
(см)
14:11 21.05 СЗ  16 км  слабый дождь  10/10 840 м  +4.0  +3.0  93  -1  -1      910.1         
14:56 21.05 СЗ  16 км  слабый дождь  10/10 840 м  +5.0  +2.8  86  0  0    1019.7  910.4         
15:08 21.05 СЗ  16 км  слабый дождь  10/10 900 м  +5.0  +3.0  87  0  0      910.4         
15:56 21.05 СЗ  16 км  слабый дождь  10/10 900 м  +5.6  +3.3  85  +1  +1    1019.8  910.4         
16:56 21.05   16 км  слабый дождь  8/8 390 м  +6.7  +3.9  82  +6  +9    1020.0  910.7  +4.4  +6.7  4.8   
17:24 21.05 С  16 км  слабый дождь  8/8 450 м  +8.0  +5.0  81  +5  +7      910.7         
17:56 21.05 нст  16 км    10/10 570 м  +8.3  +4.4  76  +7  +7    1019.9  910.7         
18:42 21.05 С  16 км    10/10 690 м  +9.0  +4.0  71  +6  +6      910.7         
18:56 21.05 СЗ  16 км    10/10 630 м  +9.4  +4.4  71  +7  +7    1019.9  910.7         
19:56 21.05 СВ  16 км    10/10 870 м  +10.0  +5.0  71  +9  +9    1020.1  910.7         
20:52 21.05 С  16 км    10/10 810 м  +11.0  +4.0  62  +9  +9      910.7         
20:56 21.05 С  16 км    10/10 810 м  +10.6  +5.0  68  +9  +9    1019.9  910.7         
21:56 21.05 СВ  16 км    5/5 720 м  +11.1  +5.0  66  +9  +14    1019.8  910.4         
22:56 21.05 СЗ  16 км    8/8 900 м  +11.1  +5.0  66  +9  +10    1019.7  910.4  +6.7  +11.7     
23:56 21.05 С  16 км    8/8 1410 м  +11.1  +5.0  66  +9  +9    1020.0  910.7         
00:56 22.05 С  16 км    5/5 1350 м  +11.7  +5.0  63  +9  +10    1020.1  910.7         
01:56 22.05 С  16 км  слабый дождь  5/5 1950 м  +10.6  +6.7  77  +8  +8    1020.5  911.0         
02:56 22.05 СЗ  16 км    10/10 1500 м  +9.4  +6.7  83  +6  +6    1021.0  911.6         
03:56 22.05 СЗ  16 км  слабый дождь  10/10 1110 м  +9.4  +6.7  83  +6  +6    1021.4  911.9         
04:56 22.05 З  16 км  слабый дождь  10/10 960 м  +8.3  +6.1  86  +4  +4    1021.7  912.2  +8.3  +12.2  2.3   
05:56 22.05 СЗ  16 км  слабый дождь  10/10 900 м  +8.9  +6.7  86  +5  +5    1021.8  912.6         
06:10 22.05 СЗ  10 км  слабый дождь, дымка  10/10 840 м  +8.0  +7.0  93  +3  +3      912.6         
06:27 22.05 СЗ  16 км  слабый дождь  10/10 900 м  +9.0  +7.0  87  +5  +5      912.6         
06:52 22.05 СЗ  16 км    10/10 840 м  +9.0  +7.0  87  +5  +5      912.6         
06:56 22.05 СЗ  16 км    10/10 840 м  +8.9  +6.7  86  +5  +5    1021.9  912.6         
07:08 22.05 З  16 км    10/10 900 м  +9.0  +7.0  87  +5  +5      912.6         
07:27 22.05 СЗ  16 км    10/10 840 м  +9.0  +7.0  87  +5  +5      912.9         
07:56 22.05 СЗ  16 км    10/10 780 м  +8.9  +6.1  83  +5  +5    1022.1  912.9      0.8   
08:20 22.05 СЗ  16 км    8/8 780 м
[средняя] 
+8.0  +6.0  87  +4  +4      912.9         
08:56 22.05 СЗ  16 км    10/2 780 м
[средняя] 
+8.9  +6.1  83  +5  +5    1022.4  913.2         
09:23 22.05 З  16 км    10/8 780 м
[средняя] 
+9.0  +7.0  87  +5  +5      913.2         
09:56 22.05 З  16 км    10/10 780 м  +8.9  +6.1  83  +5  +5    1022.9  913.5         
10:37 22.05 СЗ  16 км    8/8 780 м  +9.0  +6.0  81  +5  +5      913.5         
10:56 22.05 З  8
{11} 
16 км    2/2 1200 м  +8.9  +5.0  77  +4  +4    1022.9  913.5  +8.3  +9.4  0.8   
11:56 22.05 З  16 км    5/0 2850 м
[средняя] 
+8.9  +5.6  80  +5  +5    1023.7  914.4         
12:56 22.05 СЗ  16 км    10/0 3000 м
[средняя] 
+9.4  +6.1  80  +5  +5    1024.2  914.7         
13:56 22.05 СЗ  16 км    8/5 990 м
[средняя] 
+10.6  +6.7  77  +7  +7    1024.6  915.3         
14:56 22.05 С  16 км    2/0 2100 м
[средняя] 
+11.7  +6.7  71  +9  +9    1024.8  915.3         
15:56 22.05 С  9
{11} 
16 км    ясно  +12.8  +6.7  66  +10  +10    1024.6  915.3         
16:56 22.05 С  16 км    ясно  +13.9  +6.1  59  +11  +13    1024.9  915.6  +8.3  +13.9     
17:56 22.05 С  8
{10} 
16 км    8/5 1230 м
[средняя] 
+15.0  +5.6  53  +13  +13    1025.1  915.6         
18:56 22.05 С  9
{11} 
16 км    5/5 1350 м  +16.7  +5.6  48  +15  +15    1025.2  915.9         
19:56 22.05 С  7
{10} 
16 км    8/5 1410 м
[средняя] 
+15.0  +5.0  51  +13  +14    1025.4  915.9         
20:56 22.05 С  16 км    5/0 2100 м
[средняя] 
+15.0  +5.6  53  +13  +13    1025.5  916.2         
21:56 22.05 С  16 км    8/8 1140 м
[средняя] 
+13.9  +6.1  59  +12  +12    1025.8  916.2         
22:56 22.05 С  16 км    8/8 1950 м
[средняя] 
+14.4  +5.6  55  +13  +13    1026.0  916.5  +13.9  +16.7     
23:56 22.05 СЗ  16 км    10/0 2250 м
[средняя] 
+14.4  +4.4  51  +13  +14    1026.3  916.8         
00:56 23.05 З  16 км    10/0 2250 м
[средняя] 
+13.9  +4.4  53  +13  +14    1026.6  917.2         

 

Местоположение метеостанции La Grande/Union County Airport: широта 45.2833 долгота -118.0000 высота над уровнем моря 828 м.

В архиве по умолчанию представлена погода в Лаграндже за последние 1-2 суток. Обновление информации о фактической погоде в базе происходит ежечасно! Архивные данные за месяц целиком и за предыдущие месяцы Вы можете получить, выбрав интересующий диапазон дат из раскрывающегося списка и нажав кнопку "Ввод!".

Внимание! Архив погоды МЕТАР в базе сайта хранится не более 60 дней. Нет смысла пытаться выбрать более раннюю дату.

Внимание! Время в таблицах - всемирное. Для получения местного времени необходимо прибавить поправку, которая в Лаграндже равна -8 ч.

Ветер - указаны скорость ветра в м/с и направление, откуда дует ветер: С - северный, СВ - северо-восточный, В - восточный, ЮВ - юго-восточный, Ю - южный, ЮЗ - юго-западный, З - западный, СЗ - северо-западный.
Видимость - горизонтальная дальность видимости в метрах или километрах. При видимости от 1 до 10 км при отсутствии осадков обычно наблюдается дымка, при ухудшении видимости до 1 км и менее - туман. В сухую погоду видимость может ухудшаться дымом, пылью или мглою.
Атмосферные явления - указаны явления, наблюдавшиеся в указанный момент времени.
Облачность - указаны через наклонную черту верхняя и нижняя облачность в баллах и высота нижней границы облаков в метрах. Внимание: облачность, как и прочие метеорологические величины в США измеряются автоматическими метеостанциями. Указанные значения в баллах носят условный характер и показывают процент времени, в течение которого, в среднем, лазерный луч высотомера отражался от облаков обратно.
T - Температура воздуха - температура, измеренная на высоте 2 м над землей.
Td - Температура точки росы - температура, при понижении до которой содержащийся в воздухе водяной пар достигнет насыщения.
f - Относительная влажность воздуха - влажноcть воздуха, измеренная на высоте 2 м над землей.
Te - Эффективная температура - температура, которую ощущает одетый по сезону человек в тени. Характеристика душности погоды. При расчете учитывается влияние влажности воздуха и скорости ветра на теплоощущения человека.
Tes - Эффективная температура на солнце - температура, которую ощущает человек, с поправкой на солнечный нагрев. Характеристика знойности погоды. Зависит от высоты солнца над горизонтом, облачности и скорости ветра. Ночью, в пасмурную погоду, а также при ветре 12 м/с и более поправка равна нулю.
P - Атмосферное давление - приведенное к уровню моря атмосферное давление.
Po - Атмосферное давление - измеренное на уровне метеостанции атмосферное давление.
Tmin - Минимальная температура - минимум температуры воздуха на высоте 2 м над землей.
Tmax - Максимальная температура - максимум температуры воздуха на высоте 2 м над землей.
R - Количество осадков - Количество выпавших осадков за 3 или 6 часов, мм.
SD - Снежный покров - Высота снежного покрова, см.